[[{"header":{"parameterUnit":"m.s-1","parameterCategory":1,"la1":30.2992,"la2":30.254,"lo1":-89.0895,"lo2":-89.0443,"dy":0.0025,"dx":0.0025,"nx":19,"ny":19,"refTime":"2026-05-06T09:00:00:Z","depth":0,"parameterNumber":2,"parameterNumberName":"U-component_of_WINDS"},"data":[0,0,0,1.7582,1.7581,1.7526,1.7525,1.7476,1.7476,0,0,0,0,0,0,0,0,0,0,0,1.7612,1.7612,1.7582,1.7581,1.7526,1.7525,1.7476,1.7476,0,0,0,0,0,0,0,0,0,0,0,1.7612,1.7612,1.7612,1.7581,1.7526,1.7525,1.7476,1.751,0,0,0,0,0,0,0,0,0,0,1.756,1.7601,1.7612,1.7612,1.7581,1.7526,1.7525,1.7512,1.7508,1.7511,0,1.7517,0,1.7496,1.7474,1.7474,0,0,0,1.7571,1.7604,1.7577,1.7612,1.758,1.7526,1.7548,1.7509,1.7506,1.7507,1.7516,1.7513,1.7495,1.7474,1.7474,1.7523,1.7523,0,0,1.7574,1.7609,1.758,1.7575,1.7585,1.755,1.7546,1.7507,1.7519,1.7516,1.7512,1.7494,1.7474,1.7474,1.7522,1.7523,0,0,0,1.7589,1.7612,1.7585,1.7578,1.7566,1.7548,1.7544,1.7521,1.7509,1.7511,1.7494,1.7474,1.7473,1.7521,1.7522,1.7591,0,0,0,1.7591,1.762,1.7587,1.7608,1.7567,1.7543,1.756,1.7512,1.7507,1.7494,1.7474,1.7473,1.752,1.7522,1.7587,1.7617,0,0,0,1.7611,1.7623,1.7619,1.761,1.7587,1.7543,1.7529,1.751,1.7497,1.7474,1.7473,1.752,1.7521,1.7584,1.7612,1.764,0,0,0,1.7642,1.7681,1.7621,1.7658,1.7588,1.7586,1.7528,1.7525,1.7514,1.7474,1.752,1.7522,1.7583,1.7608,1.7637,1.767,1.7687,0,0,1.7711,1.7691,1.7709,1.7654,1.7672,1.7591,1.7619,1.7575,1.7541,1.7531,1.7531,1.7588,1.7611,1.7639,1.7772,1.7786,0,0,0,1.7743,1.7757,1.7754,1.7745,1.7713,1.7688,1.7637,1.7621,1.761,1.7543,1.7605,1.7618,1.7633,1.7647,1.7659,1.7669,1.753,1.753,1.753,1.7891,1.7845,1.7873,1.7821,1.7813,1.776,1.7749,1.7718,1.7674,1.769,1.7686,1.7772,1.779,1.7799,1.781,1.77,1.77,1.77,1.7701,1.7987,1.8,1.794,1.7946,1.7898,1.7902,1.7852,1.7821,1.7817,1.7771,1.7782,1.7735,1.7815,1.7823,1.7705,1.7705,1.7704,1.7703,1.7703,1.8078,1.8076,1.8056,1.8039,1.803,1.7976,1.7975,1.7931,1.7889,1.79,1.7891,1.789,1.7883,1.7899,1.7899,1.79,1.79,1.79,1.79,1.8181,1.8156,1.8161,1.8131,1.8119,1.8098,1.8045,1.8033,1.8007,1.7975,1.7974,1.7929,1.7832,1.7808,1.7905,1.7904,1.7903,1.7903,1.7903,1.8295,1.8262,1.8271,1.8259,1.8219,1.8214,1.8157,1.8135,1.8118,1.812,1.8072,1.8007,1.7983,1.7974,1.7954,1.8082,1.8082,1.8082,1.8082,1.8372,1.8356,1.8354,1.8339,1.8318,1.8268,1.8279,1.8238,1.8191,1.8177,1.8152,1.8122,1.8114,1.8095,1.8082,1.8063,1.8216,1.8216,1.8216,1.8439,1.8419,1.8437,1.839,1.8356,1.8328,1.8336,1.832,1.826,1.8221,1.8166,1.816,1.8111,1.8097,1.8057,1.8039,1.8003,0,0]},{"header":{"parameterUnit":"m.s-1","parameterCategory":1,"la1":30.2992,"la2":30.254,"lo1":-89.0895,"lo2":-89.0443,"dy":0.0025,"dx":0.0025,"nx":19,"ny":19,"refTime":"2026-05-06T09:00:00:Z","depth":0,"parameterNumber":3,"parameterNumberName":"V-component_of_WINDS"},"data":[0,0,0,6.4292,6.4298,6.4569,6.457,6.4905,6.4908,0,0,0,0,0,0,0,0,0,0,0,6.4204,6.4206,6.4292,6.4298,6.4569,6.457,6.4905,6.4908,0,0,0,0,0,0,0,0,0,0,0,6.4203,6.4205,6.4208,6.4299,6.4569,6.457,6.4904,6.4704,0,0,0,0,0,0,0,0,0,0,6.4443,6.4353,6.4205,6.4208,6.4301,6.4568,6.457,6.4695,6.4717,6.4778,0,6.4828,0,6.4874,6.493,6.4931,0,0,0,6.4305,6.4335,6.4415,6.4208,6.4303,6.4568,6.4449,6.4707,6.4732,6.4807,6.4833,6.4846,6.4879,6.4932,6.4934,6.5263,6.5264,0,0,6.429,6.4248,6.4398,6.4431,6.4387,6.444,6.4457,6.4722,6.4749,6.4835,6.4854,6.4885,6.4934,6.4937,6.5262,6.5263,0,0,0,6.4243,6.4238,6.4312,6.4417,6.4466,6.4448,6.4467,6.4737,6.4765,6.4858,6.4889,6.4936,6.494,6.526,6.5262,6.5284,0,0,0,6.4234,6.421,6.4305,6.4282,6.4461,6.4605,6.4476,6.4746,6.4778,6.4887,6.4936,6.4943,6.5259,6.5261,6.5281,6.5301,0,0,0,6.4189,6.4205,6.4241,6.428,6.4394,6.4601,6.4645,6.4754,6.4796,6.4931,6.4944,6.5258,6.5261,6.5278,6.5297,6.5378,0,0,0,6.413,6.4256,6.4241,6.4394,6.4392,6.4612,6.4643,6.481,6.4928,6.4938,6.5259,6.5262,6.5277,6.5294,6.5374,6.5439,6.5462,0,0,6.4266,6.4271,6.4364,6.4359,6.4571,6.4574,6.4791,6.4939,6.4989,6.5169,6.5178,6.5282,6.5296,6.5377,6.5602,6.5619,0,0,0,6.4394,6.4461,6.4526,6.4637,6.4752,6.4854,6.4973,6.5029,6.5183,6.5073,6.5334,6.5343,6.5393,6.5426,6.5441,6.5487,6.5275,6.5275,6.5275,6.4527,6.4586,6.4746,6.4838,6.4945,6.5068,6.5161,6.5257,6.5284,6.5345,6.5398,6.5528,6.5565,6.5577,6.5624,6.5437,6.5437,6.5437,6.5437,6.4733,6.4838,6.4873,6.5041,6.5103,6.5245,6.5369,6.5384,6.5527,6.5491,6.5537,6.5494,6.5594,6.5639,6.5439,6.5439,6.5438,6.5438,6.5438,6.4828,6.4889,6.4954,6.5122,6.5246,6.5335,6.5471,6.5523,6.5573,6.5618,6.5683,6.5682,6.569,6.5645,6.5645,6.5646,6.5646,6.5647,6.5647,6.4901,6.4974,6.5082,6.5217,6.5297,6.5408,6.5534,6.5614,6.5717,6.5744,6.5745,6.5768,6.5592,6.5548,6.5654,6.5653,6.5652,6.5651,6.5651,6.5091,6.5057,6.5223,6.5302,6.5467,6.5588,6.5652,6.5812,6.5886,6.5952,6.5966,6.5827,6.5836,6.5825,6.5789,6.5951,6.5951,6.5951,6.5951,6.5172,6.5181,6.5365,6.5489,6.5617,6.5693,6.5882,6.5983,6.6081,6.6131,6.6115,6.6071,6.6057,6.6075,6.6058,6.6025,6.6244,6.6245,6.6245,6.5293,6.5317,6.5467,6.5562,6.5696,6.581,6.5991,6.6134,6.6239,6.6258,6.6172,6.616,6.609,6.6064,6.608,6.6052,6.5993,0,0]}]]